| time (UTC) | temp F | wind direction | speed MPH | gust MPH | rain 1hr in | rain 24hr in | rain mn in | humidity % | barometer mb |
| 20260906092505 | 72 | 351 | 1.0 | 3.0 | 0.03 | 0.07 | 0.07 | 94 | 1006.7 |
| 20260906092004 | 72 | 0 | 2.0 | 5.0 | 0.03 | 0.07 | 0.07 | 93 | 1006.8 |
| 20260906091505 | 72 | 92 | 1.0 | 3.0 | 0.03 | 0.07 | 0.07 | 93 | 1006.9 |
| 20260906085504 | 72 | 15 | 1.0 | 3.0 | 0.00 | 0.04 | 0.04 | 93 | 1007.0 |
| 20260906085003 | 72 | 15 | 2.0 | 3.0 | 0.00 | 0.04 | 0.04 | 93 | 1007.1 |
| 20260906084504 | 72 | 53 | 2.0 | 3.0 | 0.00 | 0.04 | 0.04 | 93 | 1007.1 |
| 20260906083506 | 72 | 76 | 4.0 | 6.0 | 0.00 | 0.04 | 0.04 | 92 | 1007.2 |
| 20260906082005 | 72 | 29 | 6.0 | 12.0 | 0.00 | 0.04 | 0.04 | 92 | 1007.2 |
| 20260906081505 | 72 | 28 | 5.0 | 10.0 | 0.00 | 0.04 | 0.04 | 92 | 1007.1 |
| 20260906080504 | 72 | 24 | 6.0 | 12.0 | 0.00 | 0.04 | 0.04 | 92 | 1007.3 |
| 20260906075004 | 72 | 63 | 2.0 | 5.0 | 0.00 | 0.04 | 0.04 | 92 | 1007.2 |
| 20260906074505 | 72 | 61 | 3.0 | 8.0 | 0.00 | 0.04 | 0.04 | 92 | 1007.2 |
| 20260906074004 | 72 | 24 | 6.0 | 9.0 | 0.00 | 0.04 | 0.04 | 92 | 1007.3 |
| 20260906073504 | 72 | 31 | 2.0 | 5.0 | 0.00 | 0.04 | 0.04 | 92 | 1007.3 |
| 20260906073004 | 72 | 48 | 4.0 | 8.0 | 0.00 | 0.04 | 0.04 | 92 | 1007.3 |
| 20260906072504 | 72 | 36 | 3.0 | 9.0 | 0.00 | 0.04 | 0.04 | 92 | 1007.2 |
| 20260906072004 | 72 | 51 | 6.0 | 10.0 | 0.00 | 0.04 | 0.04 | 92 | 1007.1 |
| 20260906071005 | 71 | 70 | 2.0 | 7.0 | 0.00 | 0.04 | 0.04 | 93 | 1007.0 |
| 20260906065505 | 71 | 50 | 5.0 | 10.0 | 0.00 | 0.04 | 0.04 | 93 | 1006.7 |
| 20260906065004 | 71 | 64 | 4.0 | 8.0 | 0.00 | 0.04 | 0.04 | 93 | 1006.6 |
| 20260906064505 | 71 | 29 | 6.0 | 10.0 | 0.00 | 0.04 | 0.04 | 93 | 1006.6 |
| 20260906064004 | 71 | 37 | 5.0 | 10.0 | 0.00 | 0.04 | 0.04 | 93 | 1006.5 |
| 20260906062504 | 71 | 39 | 5.0 | 13.0 | 0.00 | 0.04 | 0.04 | 93 | 1006.2 |
| 20260906061504 | 72 | 30 | 6.0 | 10.0 | 0.00 | 0.04 | 0.04 | 93 | 1006.2 |
| 20260906061004 | 72 | 19 | 5.0 | 8.0 | 0.00 | 0.04 | 0.04 | 93 | 1006.2 |
| 20260906060006 | 72 | 6 | 4.0 | 8.0 | 0.00 | 0.04 | 0.04 | 92 | 1006.3 |
| 20260906055004 | 72 | 7 | 4.0 | 8.0 | 0.00 | 0.04 | 0.04 | 92 | 1006.2 |
| 20260906054004 | 72 | 345 | 7.0 | 14.0 | 0.00 | 0.04 | 0.04 | 92 | 1006.0 |
| 20260906053006 | 72 | 30 | 8.0 | 14.0 | 0.00 | 0.04 | 0.04 | 93 | 1005.9 |
| 20260906052505 | 72 | 11 | 5.0 | 9.0 | 0.00 | 0.04 | 0.04 | 93 | 1005.8 |
| 20260906052005 | 72 | 7 | 3.0 | 7.0 | 0.00 | 0.04 | 0.04 | 93 | 1005.8 |
| 20260906050005 | 72 | 19 | 5.0 | 10.0 | 0.00 | 0.04 | 0.04 | 92 | 1005.7 |
| 20260906045004 | 72 | 22 | 5.0 | 8.0 | 0.00 | 0.04 | 0.04 | 92 | 1005.7 |
| 20260906044505 | 72 | 35 | 6.0 | 10.0 | 0.00 | 0.04 | 0.04 | 92 | 1005.6 |
| 20260906044004 | 72 | 65 | 5.0 | 9.0 | 0.01 | 0.04 | 0.04 | 92 | 1005.6 |
| 20260906043505 | 72 | 63 | 7.0 | 16.0 | 0.01 | 0.04 | 0.04 | 92 | 1005.6 |
| 20260906041004 | 72 | 23 | 6.0 | 12.0 | 0.01 | 0.04 | 0.04 | 93 | 1005.1 |
| 20260906040505 | 72 | 12 | 7.0 | 14.0 | 0.01 | 0.04 | 0.04 | 92 | 1005.2 |
| 20260906040005 | 72 | 28 | 6.0 | 12.0 | 0.01 | 0.04 | 0.04 | 92 | 1005.1 |
| 20260906034004 | 73 | 5 | 7.0 | 10.0 | 0.00 | 0.03 | 0.03 | 92 | 1005.2 |
| 20260906033504 | 73 | 351 | 8.0 | 13.0 | 0.00 | 0.03 | 0.03 | 92 | 1005.3 |
| 20260906033005 | 73 | 3 | 7.0 | 15.0 | 0.00 | 0.03 | 0.03 | 92 | 1005.3 |
| 20260906031505 | 73 | 18 | 6.0 | 13.0 | 0.00 | 0.03 | 0.03 | 91 | 1005.1 |
| 20260906031005 | 73 | 2 | 9.0 | 16.0 | 0.01 | 0.03 | 0.03 | 91 | 1005.1 |
| 20260906022504 | 75 | 16 | 8.0 | 17.0 | 0.02 | 0.03 | 0.03 | 90 | 1004.9 |
| 20260906021504 | 75 | 28 | 9.0 | 15.0 | 0.02 | 0.03 | 0.03 | 90 | 1004.9 |
| 20260906021005 | 75 | 41 | 7.0 | 17.0 | 0.02 | 0.03 | 0.03 | 90 | 1005.0 |
| 20260906020504 | 75 | 1 | 9.0 | 17.0 | 0.02 | 0.03 | 0.03 | 90 | 1004.9 |
| 20260906020004 | 75 | 14 | 10.0 | 15.0 | 0.02 | 0.03 | 0.03 | 91 | 1004.9 |
| 20260906015504 | 75 | 18 | 10.0 | 16.0 | 0.01 | 0.02 | 0.02 | 90 | 1004.9 |
| 20260906014505 | 76 | 31 | 9.0 | 20.0 | 0.01 | 0.02 | 0.02 | 88 | 1005.0 |
| 20260906014004 | 76 | 3 | 5.0 | 12.0 | 0.00 | 0.01 | 0.01 | 88 | 1005.0 |
| 20260906012504 | 77 | 5 | 6.0 | 13.0 | 0.00 | 0.02 | 0.01 | 87 | 1005.2 |
| 20260906012003 | 77 | 18 | 7.0 | 15.0 | 0.00 | 0.02 | 0.01 | 86 | 1005.2 |
| 20260906011004 | 79 | 348 | 9.0 | 14.0 | 0.00 | 0.02 | 0.01 | 84 | 1005.2 |
| 20260906010004 | 78 | 6 | 10.0 | 15.0 | 0.00 | 0.02 | 0.01 | 83 | 1005.2 |
| 20260906005504 | 79 | 9 | 8.0 | 17.0 | 0.00 | 0.02 | 0.01 | 83 | 1005.2 |
| 20260906004504 | 77 | 39 | 8.0 | 20.0 | 0.00 | 0.02 | 0.01 | 85 | 1005.2 |
| 20260906004004 | 77 | 46 | 9.0 | 22.0 | 0.00 | 0.02 | 0.01 | 87 | 1005.2 |
| 20260906003505 | 77 | 14 | 15.0 | 22.0 | 0.00 | 0.02 | 0.01 | 82 | 1005.1 |
| 20260906002504 | 77 | 19 | 13.0 | 22.0 | 0.00 | 0.02 | 0.01 | 84 | 1005.2 |
| 20260906001504 | 78 | 16 | 12.0 | 22.0 | 0.00 | 0.02 | 0.01 | 83 | 1005.2 |
| 20260906001005 | 79 | 25 | 12.0 | 22.0 | 0.00 | 0.02 | 0.01 | 80 | 1005.2 |
| 20260906000503 | 80 | 8 | 12.0 | 18.0 | 0.00 | 0.02 | 0.01 | 79 | 1005.2 |
| 20260905235004 | 80 | 33 | 11.0 | 21.0 | 0.00 | 0.02 | 0.01 | 80 | 1005.1 |
| 20260905234504 | 80 | 27 | 16.0 | 24.0 | 0.00 | 0.02 | 0.01 | 78 | 1005.3 |
| 20260905233004 | 80 | 9 | 13.0 | 23.0 | 0.00 | 0.02 | 0.01 | 80 | 1005.6 |
| 20260905232505 | 80 | 15 | 8.0 | 17.0 | 0.00 | 0.02 | 0.01 | 82 | 1005.7 |
| 20260905232004 | 80 | 30 | 11.0 | 18.0 | 0.00 | 0.02 | 0.01 | 80 | 1005.8 |
| 20260905231505 | 79 | 8 | 12.0 | 18.0 | 0.00 | 0.02 | 0.01 | 81 | 1005.8 |
| 20260905231004 | 79 | 18 | 12.0 | 21.0 | 0.00 | 0.02 | 0.01 | 81 | 1005.9 |
| 20260905230504 | 80 | 30 | 10.0 | 17.0 | 0.00 | 0.02 | 0.01 | 83 | 1006.1 |
| 20260905225504 | 80 | 23 | 11.0 | 16.0 | 0.00 | 0.02 | 0.01 | 80 | 1006.3 |
| 20260905225004 | 81 | 24 | 9.0 | 14.0 | 0.00 | 0.02 | 0.01 | 81 | 1006.3 |
| 20260905224004 | 81 | 24 | 10.0 | 18.0 | 0.00 | 0.02 | 0.01 | 79 | 1006.5 |
| 20260905223505 | 80 | 27 | 9.0 | 17.0 | 0.00 | 0.02 | 0.01 | 78 | 1006.6 |
| 20260905223004 | 80 | 25 | 9.0 | 18.0 | 0.00 | 0.02 | 0.01 | 79 | 1006.6 |
| 20260905222004 | 80 | 24 | 9.0 | 24.0 | 0.00 | 0.02 | 0.01 | 80 | 1006.5 |
| 20260905221004 | 80 | 18 | 10.0 | 17.0 | 0.00 | 0.02 | 0.01 | 80 | 1006.6 |
| 20260905220004 | 81 | 29 | 16.0 | 24.0 | 0.00 | 0.02 | 0.01 | 77 | 1006.8 |
| 20260905215004 | 80 | 18 | 11.0 | 18.0 | 0.00 | 0.02 | 0.01 | 79 | 1006.8 |
| 20260905213004 | 81 | 15 | 12.0 | 20.0 | 0.00 | 0.02 | 0.01 | 77 | 1006.8 |
| 20260905211504 | 81 | 2 | 12.0 | 20.0 | 0.00 | 0.02 | 0.01 | 75 | 1006.9 |
| 20260905211004 | 81 | 46 | 10.0 | 21.0 | 0.00 | 0.02 | 0.01 | 76 | 1007.0 |
| 20260905210503 | 81 | 20 | 10.0 | 21.0 | 0.00 | 0.02 | 0.01 | 76 | 1007.0 |
| 20260905205003 | 81 | 28 | 14.0 | 22.0 | 0.00 | 0.02 | 0.01 | 73 | 1007.0 |
| 20260905204504 | 81 | 7 | 12.0 | 20.0 | 0.00 | 0.02 | 0.01 | 75 | 1007.0 |
| 20260905204004 | 81 | 17 | 10.0 | 21.0 | 0.00 | 0.02 | 0.01 | 74 | 1007.2 |
| 20260905202005 | 80 | 19 | 10.0 | 18.0 | 0.00 | 0.02 | 0.01 | 75 | 1007.3 |
| 20260905201003 | 80 | 3 | 13.0 | 23.0 | 0.00 | 0.02 | 0.01 | 75 | 1007.3 |
| 20260905200504 | 80 | 24 | 14.0 | 22.0 | 0.00 | 0.02 | 0.01 | 76 | 1007.3 |
| 20260905195004 | 80 | 34 | 11.0 | 25.0 | 0.00 | 0.02 | 0.01 | 75 | 1007.3 |
| 20260905193504 | 80 | 22 | 9.0 | 17.0 | 0.00 | 0.02 | 0.01 | 76 | 1007.4 |
| 20260905193004 | 79 | 44 | 6.0 | 16.0 | 0.00 | 0.02 | 0.01 | 76 | 1007.5 |
| 20260905192504 | 79 | 21 | 10.0 | 18.0 | 0.00 | 0.02 | 0.01 | 77 | 1007.4 |
| 20260905191504 | 78 | 30 | 13.0 | 22.0 | 0.00 | 0.02 | 0.01 | 78 | 1007.3 |
| 20260905191003 | 79 | 34 | 12.0 | 20.0 | 0.00 | 0.02 | 0.01 | 77 | 1007.3 |
| 20260905190505 | 79 | 7 | 9.0 | 15.0 | 0.00 | 0.02 | 0.01 | 77 | 1007.2 |
| 20260905190004 | 79 | 26 | 9.0 | 13.0 | 0.00 | 0.02 | 0.01 | 78 | 1007.1 |
| 20260905185005 | 78 | 26 | 9.0 | 18.0 | 0.00 | 0.02 | 0.01 | 77 | 1007.1 |
| 20260905184004 | 76 | 24 | 11.0 | 22.0 | 0.00 | 0.02 | 0.01 | 79 | 1007.0 |
| 20260905181004 | 73 | 62 | 9.0 | 16.0 | 0.00 | 0.02 | 0.01 | 83 | 1007.4 |
| 20260905180503 | 73 | 25 | 7.0 | 17.0 | 0.00 | 0.02 | 0.01 | 84 | 1007.4 |
| 20260905180004 | 73 | 23 | 9.0 | 20.0 | 0.00 | 0.02 | 0.01 | 84 | 1007.5 |
| 20260905175004 | 72 | 7 | 7.0 | 13.0 | 0.00 | 0.03 | 0.01 | 85 | 1007.3 |
| 20260905173504 | 71 | 37 | 9.0 | 15.0 | 0.00 | 0.03 | 0.01 | 85 | 1006.9 |
| 20260905171504 | 70 | 357 | 7.0 | 20.0 | 0.00 | 0.03 | 0.01 | 87 | 1006.9 |
| 20260905170504 | 70 | 25 | 10.0 | 17.0 | 0.00 | 0.03 | 0.01 | 87 | 1006.8 |
| 20260905165004 | 69 | 20 | 10.0 | 16.0 | 0.00 | 0.03 | 0.01 | 87 | 1006.6 |
| 20260905162004 | 68 | 45 | 7.0 | 12.0 | 0.00 | 0.03 | 0.01 | 84 | 1006.7 |
| 20260905161504 | 68 | 52 | 4.0 | 10.0 | 0.00 | 0.03 | 0.01 | 83 | 1006.7 |
| 20260905161003 | 68 | 31 | 7.0 | 14.0 | 0.00 | 0.03 | 0.01 | 85 | 1006.6 |
| 20260905155004 | 67 | 31 | 5.0 | 10.0 | 0.00 | 0.04 | 0.01 | 84 | 1006.6 |
| 20260905154504 | 67 | 42 | 4.0 | 10.0 | 0.00 | 0.04 | 0.01 | 84 | 1006.6 |
| 20260905154005 | 67 | 46 | 3.0 | 8.0 | 0.00 | 0.04 | 0.01 | 84 | 1006.6 |
| 20260905153003 | 67 | 29 | 5.0 | 14.0 | 0.00 | 0.04 | 0.01 | 84 | 1006.4 |
| 20260905152504 | 67 | 29 | 6.0 | 12.0 | 0.00 | 0.05 | 0.01 | 85 | 1006.3 |
| 20260905151504 | 67 | 13 | 5.0 | 8.0 | 0.00 | 0.05 | 0.01 | 85 | 1006.4 |
| 20260905150504 | 66 | 37 | 6.0 | 9.0 | 0.00 | 0.05 | 0.01 | 83 | 1006.4 |
| 20260905145004 | 65 | 18 | 4.0 | 10.0 | 0.00 | 0.05 | 0.01 | 87 | 1006.4 |
| 20260905144503 | 65 | 75 | 4.0 | 7.0 | 0.00 | 0.05 | 0.01 | 87 | 1006.5 |
| 20260905144004 | 65 | 80 | 5.0 | 7.0 | 0.00 | 0.05 | 0.01 | 87 | 1006.6 |
| 20260905143504 | 65 | 73 | 5.0 | 8.0 | 0.00 | 0.05 | 0.01 | 87 | 1006.5 |
| 20260905142504 | 66 | 74 | 3.0 | 5.0 | 0.00 | 0.05 | 0.01 | 87 | 1006.6 |
| 20260905141004 | 66 | 85 | 5.0 | 7.0 | 0.00 | 0.05 | 0.01 | 86 | 1006.7 |
| 20260905140503 | 66 | 76 | 3.0 | 7.0 | 0.00 | 0.05 | 0.01 | 86 | 1006.7 |
| 20260905134504 | 65 | 83 | 4.0 | 7.0 | 0.00 | 0.05 | 0.01 | 86 | 1006.6 |
| 20260905134004 | 65 | 52 | 2.0 | 7.0 | 0.00 | 0.05 | 0.01 | 86 | 1006.6 |
| 20260905133504 | 65 | 36 | 3.0 | 5.0 | 0.00 | 0.05 | 0.01 | 86 | 1006.6 |
| 20260905132504 | 65 | 80 | 3.0 | 5.0 | 0.00 | 0.05 | 0.01 | 85 | 1006.6 |
| 20260905131505 | 65 | 5 | 2.0 | 7.0 | 0.00 | 0.05 | 0.01 | 84 | 1006.5 |
| 20260905131004 | 65 | 9 | 3.0 | 5.0 | 0.00 | 0.05 | 0.01 | 84 | 1006.5 |
| 20260905130005 | 66 | 85 | 1.0 | 7.0 | 0.00 | 0.05 | 0.01 | 85 | 1006.5 |
| 20260905125004 | 66 | 25 | 4.0 | 6.0 | 0.00 | 0.05 | 0.01 | 87 | 1006.5 |
| 20260905124504 | 66 | 23 | 5.0 | 8.0 | 0.00 | 0.05 | 0.01 | 87 | 1006.5 |
| 20260905124004 | 66 | 126 | 3.0 | 7.0 | 0.00 | 0.05 | 0.01 | 84 | 1006.6 |
| 20260905123504 | 66 | 81 | 4.0 | 7.0 | 0.00 | 0.05 | 0.01 | 84 | 1006.5 |
| 20260905122504 | 67 | 23 | 2.0 | 5.0 | 0.00 | 0.05 | 0.01 | 83 | 1006.6 |
| 20260905121004 | 67 | 31 | 4.0 | 8.0 | 0.00 | 0.05 | 0.01 | 84 | 1006.8 |
| 20260905115004 | 68 | 23 | 6.0 | 12.0 | 0.00 | 0.05 | 0.01 | 89 | 1007.0 |
| 20260905113004 | 69 | 14 | 8.0 | 13.0 | 0.00 | 0.05 | 0.01 | 89 | 1007.1 |
| 20260905112504 | 69 | 11 | 9.0 | 18.0 | 0.01 | 0.05 | 0.01 | 89 | 1007.2 |
| 20260905111004 | 69 | 36 | 8.0 | 15.0 | 0.01 | 0.06 | 0.01 | 89 | 1007.3 |
| 20260905110008 | 69 | 33 | 9.0 | 16.0 | 0.01 | 0.06 | 0.01 | 90 | 1007.3 |
| 20260905105005 | 69 | 34 | 10.0 | 16.0 | 0.01 | 0.06 | 0.01 | 91 | 1007.5 |
| 20260905104504 | 69 | 12 | 9.0 | 17.0 | 0.01 | 0.06 | 0.01 | 92 | 1007.6 |
| 20260905103505 | 69 | 19 | 9.0 | 16.0 | 0.01 | 0.06 | 0.01 | 91 | 1007.8 |
| 20260905103005 | 69 | 18 | 9.0 | 18.0 | 0.01 | 0.06 | 0.01 | 91 | 1007.8 |
| 20260905102504 | 69 | 10 | 8.0 | 18.0 | 0.00 | 0.05 | 0.00 | 91 | 1007.8 |
| 20260905102004 | 69 | 11 | 8.0 | 17.0 | 0.00 | 0.05 | 0.00 | 91 | 1007.8 |
| 20260905100504 | 69 | 20 | 11.0 | 18.0 | 0.00 | 0.06 | 0.00 | 90 | 1007.8 |
| 20260905094004 | 69 | 15 | 10.0 | 17.0 | 0.00 | 0.06 | 0.06 | 91 | 1007.9 |